Other Surface Observations
Issued by NWS

Home | Current Version | Previous Version | Text Only | Print | Product List | Glossary On
Versions: 1 2 3 4 5 6 7 8 9 10 11 12 13 14 15 16 17 18 19 20 21 22 23 24 25 26 27 28 29 30 31 32 33 34 35 36 37 38 39 40 41 42 43 44 45 46 47 48 49 50
000
SXUS52 KTAE 220318
OSOTAE
OSOTAE
North Florida/South Alabama/Southwest Georgia Weather Roundup
National Weather Service Tallahassee Florida
1000 PM EST SUN DEC 21 2014

Note: "fair" indicates few or no clouds below 12,000 feet with no
significant weather and/or obstructions to visibility.

!FLZ017-115-028-034-025-220400
...North Florida...

CITY           SKY/WX    TMP DP  RH WIND       PRES   REMARKS
TALLAHASSEE    CLOUDY    57  54  89 CALM      30.05S
APALACHICOLA   FOG       60  57  89 NE5       30.03F VSB 1/2
PERRY          CLOUDY    57  57  99 CALM      30.07R FOG
CROSS CITY       N/A     63  63 100 S3        30.05S
JACKSONVILLE   CLOUDY    56  56 100 NE6       30.05F FOG
$$

!FLZ112-006-005-002-011-220400
...Florida Panhandle...

CITY           SKY/WX    TMP DP  RH WIND       PRES   REMARKS
MARIANNA       CLOUDY    53  53 100 NE8       30.03F FOG
BONIFAY        NOT AVBL
PANAMA CITY NW LGT RAIN  56  54  93 NE3       30.02R FOG
TYNDALL AFB    CLOUDY    57  57 100 E8        30.02R
TYND DRONE APT LGT RAIN  57  57 100 E12       30.00S
DE FUNIAK SPR  FOG       53  53 100 E3        30.03S VSB 3/4
EGLIN AFB      CLOUDY    55  54  95 VRB3      30.01F FOG
DESTIN         CLOUDY    57  55  93 N8        30.02R
HURLBURT       CLOUDY    56  51  86 E7        30.00F
CRESTVIEW      CLOUDY    54  53  97 E5        30.03F FOG
PENSACOLA      CLOUDY    53  53 100 E5        30.01F
$$

!ALZ063-066-220400
...South Alabama...

CITY           SKY/WX    TMP DP  RH WIND       PRES   REMARKS
DOTHAN         CLOUDY    52  51  97 E6        30.07R FOG
OZARK CAIRNS   CLOUDY    53  51  95 E6        30.03F
FT RUCKER HELI CLOUDY    53  51  93 E5        30.02F FOG
RUCKER HELI 3  MOCLDY    52  52 100 E7        30.04F FOG
RUCKER HELI 2  CLOUDY    52  51  97 E6        30.03F FOG
FLORALA APT    CLOUDY    54  53  97 E6        30.02F FOG
ANDALUSIA      CLOUDY    57  52  83 SE7       30.02F HAZE
TROY           CLOUDY    52  51  97 NE3       30.05S FOG
EUFALA         CLOUDY    52  50  93 E5        30.06R FOG
MOBILE         CLOUDY    53  53 100 E5        29.99F FOG
$$

!GAZ120>161-220400
...Southwest and South Central Georgia...

CITY           SKY/WX    TMP DP  RH WIND       PRES   REMARKS
THOMASVILLE    CLOUDY    54  54 100 NE6       30.07F FOG
BAINBRIDGE     LGT RAIN  54  54 100 E9        30.05F
MOODY AFB      CLOUDY    52  50  95 NE5       30.07R
VALDOSTA       CLOUDY    53  52  96 E3        30.07R
MOULTRIE       CLOUDY    52  52 100 E5        30.08S FOG
BLAKELY        CLOUDY    54  52  94 E5        30.06R FOG
ALBANY         CLOUDY    50  50 100 E6        30.08F FOG
TIFTON         CLOUDY    49  49 100 NE5       30.07F FOG
FITZGERALD     CLOUDY    50  47  90 E3        30.10F FOG
CORDELE        CLOUDY    49  48  95 E6        30.08F
AMERICUS       CLOUDY    46  46 100 E8        30.08S FOG     WCI  42
HOMERVILLE     CLOUDY    54  52  94 CALM      30.08R
$$

!GMZ750-755-770-775-220400
...Coastal and Buoy Obs...

STATION/POSITION TIME  TEMP    WIND        PRES    VSBY  WAVE
                       AIR SEA DIR/SP/G                  HT/PER
                 (UTC) (F)     (DEG/KT/KT) (MB)    (MI)  (FT/S)
KEATON BEACH     0300   59      70/  4/  6 1017.6R
CEDAR KEY        0300   63      80/  4/  5 1018.2R
C TOWER          0300   60      70/ 13/ 14 1016.3F
APALACHICOLA BUO 0300   71 73   CALM  /  4 1016.0F         3/ 6
PANAMA CITY BUOY 0214   69 75   70/ 14/ 16 1015.3F         3/ 5
MOBILE BUOY      0300   69 74   70/ 12/ 16 1013.5F         2/ 6
ORANGE BCH AL BU 0300   63 70   70/ 12/ 14 1014.5F         2/ 4
$$



USA.gov is the U.S. government's official web portal to all federal, state and local government web resources and services.